Wind_Speed
17 17 17 18 18 17 16 16 16 16 15 14 14 13 12 12 12 13 14 15 15 16 17 18 18 19 20 22 23 23 23 23 24 24 24 24 25 25 26 26 27 27 28
17 17 18 18 18 18 17 17 16 15 15 14 14 14 14 13 13 14 14 15 15 16 16 17 18 19 20 21 21 22 23 23 23 23 24 25 26 26 26 27 27 28 29
18 19 19 19 18 18 17 16 16 15 14 14 14 14 15 15 15 15 15 15 16 16 16 17 17 18 19 20 21 21 22 23 23 24 24 25 26 27 28 27 27 27 29
19 19 19 18 18 17 17 16 16 16 15 14 14 14 15 15 15 15 15 15 16 16 17 17 17 18 19 20 20 20 21 22 23 23 24 25 26 27 28 28 28 29 29
18 18 18 18 18 17 16 16 16 15 15 15 15 15 15 15 15 15 15 15 15 16 16 17 17 17 18 19 19 20 21 22 22 23 25 26 27 27 28 29 29 29 30
18 18 18 18 18 17 16 16 15 16 16 15 15 15 15 15 15 16 16 16 17 17 17 17 18 17 18 19 19 20 21 22 23 25 26 26 26 28 29 30 30 30 31
19 19 18 18 18 17 16 16 16 16 16 15 15 15 15 16 16 16 16 16 17 17 17 17 18 19 19 20 21 22 22 23 24 25 25 26 27 29 30 30 31 31 32
19 18 18 18 18 17 17 16 16 16 15 16 16 16 16 17 16 16 16 17 18 18 18 18 18 19 19 21 22 22 23 24 25 26 27 27 28 28 29 30 31 32 32
19 19 19 19 18 18 17 17 16 16 16 16 17 16 16 16 17 17 18 18 19 19 19 19 20 20 21 22 22 23 24 24 26 27 28 28 29 29 29 30 31 32 33
19 19 19 19 18 18 17 17 17 17 17 17 17 17 17 17 18 19 19 19 20 19 20 21 22 22 23 23 24 25 25 26 27 27 28 29 30 30 31 31 32 33 33
20 20 20 20 18 18 18 18 18 18 18 18 18 18 18 18 19 20 20 20 19 19 21 22 22 23 24 25 25 26 27 27 27 28 29 29 30 30 31 32 32 33 33
20 20 20 20 19 18 18 18 18 18 18 18 18 19 18 19 20 20 20 20 20 21 22 23 24 25 26 26 27 27 28 28 28 29 30 30 31 31 32 32 33 33 33
20 21 21 20 19 19 19 19 19 19 19 19 19 19 20 20 21 21 21 21 22 23 24 25 26 27 27 28 28 28 29 29 30 30 31 32 32 32 32 33 33 34 34
21 21 21 20 20 19 19 20 20 20 20 20 20 21 21 21 22 22 23 23 24 25 25 26 27 28 28 28 28 29 30 30 31 31 32 33 33 34 34 34 34 35 35
21 22 21 21 20 20 20 20 21 22 22 22 22 22 22 22 23 23 24 25 26 26 27 27 28 28 29 29 29 30 31 32 32 33 34 34 35 35 35 35 35 35 36
22 22 22 22 21 21 21 22 22 23 23 24 24 23 23 23 24 25 25 26 26 27 27 28 29 29 30 30 30 31 32 33 34 34 35 35 36 36 36 36 36 36 36
23 24 24 23 23 22 23 23 23 24 24 24 24 24 24 24 25 26 27 27 28 28 29 29 30 31 31 31 32 33 34 34 34 34 34 35 35 35 36 36 36 35 35
25 25 24 24 23 23 24 24 25 25 25 25 25 24 25 26 26 27 28 29 29 29 30 31 31 32 32 33 34 34 34 35 35 35 35 35 35 35 36 35 35 35 35
26 25 25 25 25 25 25 25 26 26 26 26 26 26 26 27 27 28 29 29 30 30 31 32 32 33 34 34 34 34 35 35 35 35 36 36 36 36 35 35 34 34 33
26 25 26 26 26 25 26 26 27 26 26 26 26 26 27 27 28 28 29 29 30 31 32 33 34 34 34 34 34 35 35 35 36 36 36 36 36 35 34 34 33 33 32
26 26 26 26 26 26 27 28 28 28 27 26 26 27 27 28 28 29 30 31 32 33 33 34 34 35 34 34 35 35 36 36 36 36 35 35 34 34 33 32 31 30 30
27 26 26 27 27 28 28 28 28 27 27 27 27 28 28 29 29 30 31 31 32 34 34 34 34 34 34 34 35 35 35 35 35 35 34 33 33 32 31 30 29 29 29
27 27 27 28 28 28 27 27 26 26 27 27 28 28 29 29 30 31 32 33 33 34 34 33 33 33 34 34 34 34 34 34 34 33 33 32 31 31 30 29 28 28 28
27 27 27 28 28 27 27 26 27 27 27 28 28 28 29 30 31 32 33 34 34 34 34 33 33 33 33 33 33 33 34 34 33 32 31 31 30 29 29 28 28 28 27
27 27 27 27 27 26 25 25 26 27 27 28 28 29 30 31 31 32 33 34 34 33 33 32 32 32 32 33 33 33 33 33 32 31 30 30 29 28 28 27 27 27 27
26 26 26 26 25 24 25 25 26 27 28 29 30 30 31 32 32 32 32 32 32 31 31 31 31 32 32 32 32 32 32 32 31 30 30 29 29 28 28 27 27 27 26
Wind_Direction
319 319 321 323 322 320 319 317 316 317 316 312 307 303 297 295 293 292 292 290 287 285 284 285 283 281 280 279 279 279 280 281 281 280 282 282 282 283 283 283 283 285 285
317 319 319 320 320 321 320 319 316 315 315 314 311 305 300 297 296 296 295 293 292 291 289 291 291 289 287 286 283 282 283 284 284 284 284 284 285 285 287 289 288 286 286
316 317 317 317 317 318 319 320 319 317 313 313 312 310 307 303 300 299 299 296 293 293 292 290 290 290 290 289 287 287 287 286 286 286 285 287 288 289 291 291 290 290 288
314 315 316 316 316 316 318 319 318 316 313 311 310 311 310 309 310 309 306 302 300 297 296 295 294 294 293 293 291 291 290 289 289 289 288 287 288 290 292 291 290 291 289
313 315 317 318 318 316 315 315 314 314 313 310 308 309 311 311 312 312 313 312 307 304 302 301 299 299 298 297 295 295 294 294 293 292 291 291 289 289 291 291 291 290 291
313 315 316 317 318 317 314 313 314 313 313 310 308 308 310 312 311 312 315 314 313 308 304 301 301 301 300 299 298 297 295 295 294 294 294 293 291 291 292 293 292 291 291
311 312 314 315 316 316 314 313 313 314 313 310 310 309 310 312 311 314 316 314 314 312 308 305 303 302 302 301 299 297 296 296 297 298 298 296 295 295 294 294 294 294 292
309 311 313 314 313 314 314 313 313 315 316 314 311 310 310 311 312 313 313 313 314 314 312 309 306 304 303 303 300 299 298 298 298 299 300 300 298 297 297 296 295 295 294
307 310 311 312 311 311 311 312 314 314 313 313 313 314 315 315 315 316 316 315 315 315 315 316 314 311 310 309 307 305 304 303 303 302 301 300 299 298 298 298 297 296 295
306 308 309 310 311 310 310 311 313 313 314 315 314 314 315 315 315 315 315 315 315 315 316 316 316 315 313 311 311 310 308 307 306 305 303 301 300 299 298 297 297 297 296
302 305 306 307 308 308 310 310 311 311 312 313 313 312 312 313 314 314 316 316 316 315 315 315 315 315 313 312 311 310 310 309 309 308 306 306 306 305 303 301 301 301 300
298 300 303 303 303 304 306 309 310 309 310 311 311 311 311 313 315 317 318 318 317 316 315 314 314 314 313 311 309 308 308 309 309 308 308 308 308 307 306 305 303 303 302
293 297 299 300 302 302 304 307 308 307 307 309 309 310 311 312 313 315 316 316 315 314 313 312 313 313 312 309 308 308 309 308 308 308 308 308 308 308 308 307 305 304 303
290 293 296 298 300 300 301 304 306 307 307 307 308 309 310 310 311 312 313 313 312 312 311 312 312 311 311 310 309 309 309 309 308 308 308 308 308 308 308 308 307 305 304
287 290 293 297 297 297 299 301 304 306 305 305 306 307 307 307 307 308 310 310 310 310 310 311 311 311 310 310 309 309 309 309 308 308 308 308 308 307 307 307 306 305 305
287 289 291 293 295 294 296 299 302 304 305 305 305 305 306 306 305 306 308 309 309 310 310 311 311 310 310 310 310 309 309 309 308 308 308 308 308 308 307 307 307 307 306
285 287 288 290 292 294 295 298 300 302 303 303 303 303 304 305 306 306 307 308 308 309 309 310 310 309 309 309 310 310 310 310 310 309 309 309 309 309 308 308 308 307 307
285 285 285 286 289 292 294 296 299 301 301 302 301 301 302 303 305 305 306 307 307 308 309 309 309 309 310 310 310 310 311 311 311 311 311 311 310 309 309 309 309 308 307
285 283 283 285 288 290 291 294 297 298 299 299 300 300 301 302 303 304 305 306 307 308 309 310 310 310 310 310 310 311 311 311 311 311 311 311 311 310 310 310 310 309 308
282 281 282 285 287 287 290 293 296 297 297 298 298 299 300 301 302 303 304 305 306 308 309 310 311 311 310 310 310 310 311 311 311 311 311 311 311 311 311 310 310 310 310
280 281 282 285 286 288 291 293 294 296 297 297 298 299 300 301 302 303 304 305 306 307 308 309 310 310 310 309 310 310 310 311 311 312 312 312 312 312 313 313 312 312 312
279 281 282 285 286 288 290 291 293 295 297 298 299 300 301 302 303 304 305 306 307 307 308 308 309 310 309 309 310 311 312 313 313 313 313 313 313 313 313 313 312 313 313
277 278 281 284 286 288 288 290 292 295 297 298 299 300 301 302 303 305 306 306 307 309 309 309 309 309 310 311 311 312 314 314 314 315 315 315 314 313 313 313 313 313 314
275 278 281 284 286 287 288 289 291 292 294 297 298 299 301 302 303 305 305 307 308 308 308 309 309 310 311 312 312 314 314 314 315 315 315 315 315 314 314 314 313 314 314
275 277 280 282 283 284 286 288 290 292 295 297 299 300 301 302 303 305 306 307 307 307 308 309 309 311 312 313 314 314 315 315 315 315 315 315 314 314 314 314 314 314 314
275 277 279 280 282 284 286 289 292 294 296 298 300 300 301 303 304 305 306 306 307 308 309 310 312 313 313 314 315 315 316 316 316 316 315 315 314 313 313 313 313 314 314
Height
5893 5891 5889 5887 5886 5884 5882 5881 5879 5878 5876 5875 5874 5873 5872 5871 5870 5870 5870 5869 5868 5868 5867 5866 5866 5865 5865 5865 5864 5864 5863 5863 5863 5862 5860 5860 5859 5858 5857 5856 5855 5854 5853
5891 5889 5887 5885 5883 5881 5880 5878 5877 5875 5874 5872 5871 5870 5869 5868 5868 5867 5866 5865 5865 5864 5863 5862 5861 5860 5860 5859 5859 5858 5858 5857 5857 5856 5855 5854 5853 5852 5850 5849 5848 5847 5846
5888 5886 5885 5883 5881 5879 5877 5876 5874 5873 5871 5870 5869 5868 5867 5866 5864 5863 5862 5862 5861 5860 5859 5858 5857 5856 5855 5855 5854 5853 5852 5851 5851 5850 5849 5848 5847 5845 5844 5842 5841 5839 5838
5886 5884 5882 5880 5878 5876 5874 5873 5872 5870 5869 5868 5867 5865 5864 5863 5862 5860 5859 5858 5857 5856 5855 5854 5852 5852 5851 5850 5849 5848 5847 5845 5844 5843 5843 5842 5840 5839 5837 5835 5833 5832 5830
5883 5881 5879 5877 5875 5873 5871 5870 5869 5868 5866 5865 5864 5863 5861 5860 5859 5858 5856 5855 5854 5852 5851 5849 5848 5847 5846 5845 5844 5842 5841 5840 5839 5838 5836 5835 5833 5832 5830 5828 5826 5824 5822
5880 5878 5876 5874 5872 5870 5869 5868 5866 5865 5864 5862 5861 5860 5859 5858 5856 5855 5853 5852 5850 5849 5847 5845 5844 5843 5842 5840 5839 5837 5836 5835 5833 5832 5830 5828 5826 5824 5822 5820 5818 5816 5814
5877 5875 5874 5872 5870 5868 5866 5865 5864 5862 5860 5859 5858 5857 5856 5854 5853 5852 5850 5849 5847 5845 5843 5842 5840 5839 5837 5836 5834 5832 5830 5828 5827 5825 5823 5821 5819 5816 5814 5812 5809 5807 5804
5874 5873 5871 5869 5868 5866 5864 5862 5861 5859 5857 5856 5855 5854 5853 5851 5850 5849 5847 5845 5843 5841 5840 5838 5836 5834 5832 5830 5829 5827 5824 5822 5820 5818 5816 5813 5811 5808 5806 5803 5800 5797 5795
5871 5869 5868 5866 5864 5863 5861 5860 5858 5857 5855 5853 5852 5851 5850 5848 5847 5845 5843 5842 5840 5838 5836 5834 5831 5830 5827 5825 5823 5821 5818 5816 5813 5811 5808 5805 5803 5800 5797 5794 5791 5789 5786
5867 5866 5864 5863 5861 5860 5859 5857 5856 5854 5852 5851 5850 5848 5847 5845 5843 5842 5840 5838 5836 5834 5832 5829 5827 5825 5822 5820 5817 5815 5812 5809 5807 5804 5801 5798 5795 5792 5788 5785 5782 5779 5776
5864 5862 5861 5859 5858 5857 5855 5854 5853 5851 5850 5848 5847 5845 5843 5842 5840 5838 5836 5834 5831 5829 5827 5825 5822 5820 5817 5814 5811 5809 5806 5803 5800 5797 5794 5790 5787 5783 5780 5777 5773 5770 5766
5859 5858 5857 5856 5854 5853 5852 5850 5849 5847 5846 5845 5843 5841 5839 5838 5836 5833 5831 5829 5827 5825 5823 5820 5817 5814 5811 5809 5806 5802 5799 5796 5793 5789 5786 5783 5779 5776 5772 5768 5764 5761 5757
5855 5854 5853 5852 5850 5849 5848 5846 5845 5843 5842 5841 5839 5837 5835 5833 5831 5829 5827 5825 5822 5820 5817 5815 5812 5809 5806 5802 5799 5796 5793 5789 5785 5782 5779 5775 5771 5767 5764 5760 5756 5752 5748
5850 5849 5848 5847 5846 5845 5843 5842 5841 5839 5837 5836 5834 5832 5830 5828 5826 5824 5822 5819 5817 5814 5812 5809 5806 5803 5799 5796 5792 5789 5786 5782 5778 5775 5771 5767 5763 5759 5755 5751 5746 5742 5739
5845 5845 5844 5843 5842 5840 5839 5838 5836 5834 5833 5831 5829 5827 5825 5823 5821 5819 5817 5814 5811 5808 5805 5803 5799 5796 5793 5789 5786 5782 5778 5775 5771 5767 5763 5759 5754 5750 5746 5741 5737 5733 5729
5841 5840 5839 5838 5837 5836 5834 5833 5831 5829 5827 5826 5824 5822 5820 5818 5816 5813 5811 5808 5805 5802 5799 5796 5793 5789 5786 5782 5779 5775 5771 5767 5762 5758 5754 5749 5745 5741 5736 5732 5728 5723 5719
5835 5835 5834 5833 5832 5831 5829 5828 5826 5824 5822 5820 5818 5816 5814 5812 5810 5807 5805 5802 5799 5796 5792 5789 5785 5782 5778 5775 5771 5767 5762 5758 5753 5749 5745 5740 5736 5731 5727 5722 5718 5713 5709
5829 5828 5828 5827 5826 5825 5824 5822 5820 5819 5817 5815 5813 5810 5808 5806 5803 5801 5798 5795 5792 5789 5785 5782 5778 5774 5771 5766 5762 5758 5754 5749 5745 5740 5736 5731 5727 5722 5718 5713 5708 5704 5700
5824 5823 5822 5821 5820 5819 5818 5816 5815 5813 5811 5809 5806 5804 5802 5799 5796 5794 5791 5788 5785 5781 5778 5774 5770 5767 5763 5758 5754 5750 5745 5741 5736 5732 5727 5723 5718 5713 5708 5704 5699 5695 5691
5818 5817 5816 5815 5814 5813 5811 5810 5808 5806 5805 5802 5800 5797 5795 5792 5790 5787 5784 5781 5777 5774 5770 5766 5762 5759 5754 5750 5746 5742 5737 5732 5728 5723 5718 5714 5709 5704 5700 5695 5691 5687 5683
5811 5810 5809 5809 5807 5806 5805 5803 5801 5799 5797 5795 5793 5790 5788 5785 5783 5780 5777 5773 5770 5766 5762 5758 5754 5750 5746 5742 5738 5733 5729 5724 5719 5714 5710 5705 5700 5696 5691 5687 5683 5679 5675
5804 5803 5802 5802 5800 5799 5797 5796 5794 5792 5790 5788 5785 5783 5780 5778 5775 5772 5769 5765 5762 5758 5754 5750 5746 5742 5738 5733 5729 5725 5720 5716 5711 5706 5702 5697 5693 5688 5684 5680 5676 5672 5668
5797 5796 5795 5794 5793 5791 5790 5788 5787 5785 5783 5781 5778 5776 5773 5771 5768 5764 5761 5758 5754 5750 5746 5742 5738 5734 5729 5725 5721 5717 5712 5708 5703 5698 5694 5689 5685 5681 5677 5673 5669 5665 5662
5789 5789 5788 5787 5785 5784 5783 5781 5779 5778 5776 5773 5771 5769 5766 5763 5760 5757 5753 5750 5746 5742 5738 5734 5730 5726 5722 5717 5713 5709 5704 5700 5695 5691 5687 5682 5678 5674 5670 5666 5662 5659 5655
5782 5781 5781 5780 5778 5777 5776 5774 5772 5770 5768 5766 5764 5761 5758 5755 5752 5749 5745 5741 5738 5734 5730 5726 5722 5718 5714 5710 5706 5701 5697 5692 5688 5684 5679 5675 5671 5667 5664 5660 5656 5652 5649
5775 5774 5773 5772 5771 5770 5769 5767 5765 5763 5761 5759 5756 5753 5751 5747 5744 5741 5737 5733 5730 5726 5722 5719 5715 5711 5706 5702 5698 5693 5689 5685 5681 5677 5673 5669 5665 5661 5657 5653 5650 5646 5642